Wind_Speed
36 39 40 37 36 37 39 40 40 39 37 37 37 36 37 38 38 38 37 37 37 36 35 35 35 34 32 31 29 29 27 23 25 29 28 28 27 26 26 26 26 26 25 24 23 21 20 20 20 20 18 17 16 15 15 16 16 14 13 12 11 13 12 10 9 8 7 8 8 8 10 11 10 10 9 8 8 8 7 7 6 5 6 7 8
36 40 40 38 38 38 37 37 39 39 37 35 36 35 36 39 40 39 38 38 38 37 37 37 36 35 34 33 33 33 31 29 30 30 29 29 29 28 28 27 27 27 27 26 25 23 22 21 20 20 19 18 18 16 15 16 16 15 15 14 12 13 14 12 10 9 8 8 9 9 11 13 12 10 10 9 8 8 8 8 7 7 7 7 8
36 41 42 40 39 38 36 35 37 38 36 34 35 34 35 38 41 41 39 38 38 39 39 38 38 37 36 35 35 35 34 33 32 32 31 31 31 30 30 29 29 29 29 28 27 25 23 22 20 20 20 19 19 18 17 16 17 16 15 16 14 14 16 15 12 10 9 8 9 9 10 12 12 10 10 9 9 10 9 9 8 8 9 9 9
34 39 41 39 37 36 35 35 35 36 36 35 34 34 33 34 39 42 40 37 37 40 40 39 38 38 38 37 35 35 36 35 33 33 33 32 32 32 31 31 30 30 30 29 28 27 25 23 21 20 21 21 21 21 20 19 19 18 17 18 18 15 16 17 16 12 10 9 10 11 10 10 11 10 9 9 10 11 11 10 10 10 10 10 10
32 36 39 36 34 35 36 36 35 36 36 35 35 35 33 32 34 39 40 37 36 39 40 40 39 39 39 39 36 36 37 37 35 35 34 34 34 33 33 32 31 31 31 30 29 28 27 25 24 23 23 23 22 22 23 23 22 22 20 19 20 18 17 18 18 16 13 10 10 11 12 11 11 11 11 10 10 11 12 12 12 12 12 9 8
32 33 36 34 33 35 37 36 36 36 37 36 35 35 34 32 32 35 39 38 36 36 39 41 41 41 41 41 39 39 39 38 37 37 35 35 34 34 34 33 32 32 32 31 30 29 28 26 25 26 26 26 25 25 25 25 25 25 23 22 22 21 18 19 19 18 16 13 11 10 12 12 12 12 13 12 10 10 10 10 11 12 12 9 6
31 31 34 34 33 35 38 39 37 36 36 36 35 34 35 34 33 34 37 37 35 33 36 40 42 43 43 42 41 40 40 39 38 38 36 36 35 35 34 34 33 33 32 32 30 29 29 28 27 28 29 29 28 27 27 27 27 27 27 25 24 22 19 17 18 18 16 15 14 12 11 12 12 12 13 13 12 12 10 9 8 8 9 8 6
32 32 34 33 33 38 41 40 37 36 35 36 36 34 35 35 34 35 36 36 35 34 35 38 41 43 43 43 42 40 40 40 39 39 38 37 36 35 35 35 33 33 33 32 30 29 29 28 28 29 31 31 30 29 29 29 28 28 27 26 25 22 19 16 16 16 16 15 14 13 12 12 12 13 13 13 12 10 9 9 10 9 9 10 10
36 33 32 36 39 43 43 38 35 35 34 35 38 36 34 34 35 36 37 37 35 34 34 35 39 41 42 42 41 40 40 41 40 39 39 38 37 36 36 36 35 34 34 31 30 30 30 29 29 30 32 31 30 30 29 28 27 27 27 27 26 23 20 17 15 15 15 15 14 13 13 12 11 12 12 12 11 11 11 12 13 14 13 13 14
40 33 33 42 45 42 41 38 35 34 35 37 41 39 35 36 37 37 38 38 35 35 35 35 35 37 38 39 39 39 40 42 42 40 39 39 39 38 37 37 37 36 34 31 29 30 31 30 30 31 31 31 29 29 28 27 25 25 26 27 26 25 21 18 16 16 16 15 14 13 13 12 11 12 12 12 13 14 13 13 14 14 12 11 12
40 38 40 44 42 38 40 40 36 36 38 39 40 40 38 36 36 37 37 37 36 36 37 35 33 32 33 36 37 37 40 43 42 41 41 40 38 39 39 38 38 37 35 32 31 31 30 30 30 31 30 29 29 28 27 25 24 24 25 26 27 27 24 20 18 17 16 15 14 13 13 12 12 11 11 11 13 14 14 14 14 12 8 6 7
40 41 40 39 37 38 39 38 36 37 38 38 39 39 38 36 35 36 36 36 36 35 35 35 34 32 30 32 34 35 39 43 42 42 42 41 40 39 38 38 38 37 35 34 33 32 30 28 28 30 30 29 28 28 26 25 23 22 23 25 27 28 27 24 21 18 16 16 15 14 14 13 12 12 12 13 14 15 15 14 13 10 7 7 7
40 39 37 36 38 41 38 36 36 37 38 38 36 36 36 36 35 35 34 35 35 33 34 34 34 32 31 31 32 32 35 40 42 43 42 42 42 40 38 38 38 36 36 36 35 32 29 28 27 28 29 28 27 27 27 25 22 21 21 23 26 29 29 28 26 22 18 16 16 16 15 14 14 15 16 16 15 13 12 11 11 9 8 8 9
38 37 37 38 39 39 37 36 36 35 36 35 33 34 35 35 34 33 33 33 33 33 35 34 33 33 33 31 31 31 33 37 41 43 43 42 42 41 40 38 35 35 37 37 35 33 31 30 28 28 27 27 26 26 26 25 21 18 19 21 24 27 28 28 27 26 22 19 17 17 17 16 17 17 17 17 14 12 10 9 9 9 8 9 9
34 31 31 33 34 34 35 34 32 31 31 32 32 33 33 33 33 32 32 32 33 35 35 33 34 35 34 33 33 32 33 36 39 41 42 43 42 41 41 38 31 31 36 37 35 33 32 31 29 28 28 27 27 26 25 24 21 16 16 18 20 22 24 25 25 26 25 23 21 19 18 17 18 17 17 15 12 10 9 9 7 7 8 8 8
29 26 26 28 29 30 31 30 29 28 29 29 31 32 32 33 33 31 31 32 34 34 33 33 35 35 34 35 35 33 33 33 36 39 40 41 41 40 42 40 31 28 33 36 34 32 31 30 28 27 28 28 26 25 24 22 19 16 15 17 18 19 20 21 23 24 23 23 22 21 19 18 17 16 15 13 10 8 8 8 7 6 6 7 8
26 27 27 27 28 30 31 31 29 28 28 30 32 33 33 34 33 32 32 33 33 33 33 34 36 35 35 36 36 34 32 31 33 36 38 39 39 40 43 40 31 27 30 33 32 31 30 30 27 25 28 29 27 24 23 22 19 15 15 17 17 18 17 18 20 21 20 20 20 19 18 17 16 15 14 14 11 8 7 7 7 7 8 8 8
26 27 26 26 30 35 37 36 33 30 30 32 33 33 33 33 33 34 35 34 33 34 34 35 36 35 35 36 37 34 32 33 34 34 36 39 40 41 43 39 31 27 27 27 26 25 25 28 28 27 29 31 28 24 22 23 20 15 16 18 17 17 16 14 15 18 18 18 18 18 16 15 14 14 13 13 12 10 10 9 7 7 8 8 7
23 23 24 28 35 38 37 37 35 32 32 34 33 32 32 32 32 33 34 33 32 32 33 34 35 36 36 37 40 38 33 34 37 36 36 39 40 41 42 37 30 27 26 25 24 21 20 24 28 31 31 29 28 24 23 25 21 15 17 19 18 18 17 14 14 17 19 20 19 17 16 14 14 13 13 13 12 11 11 10 7 7 7 7 6
20 23 26 29 33 33 30 32 34 33 33 33 32 31 32 31 30 31 32 32 31 31 32 32 33 35 36 37 40 40 37 36 39 39 38 38 40 41 39 35 32 28 26 27 25 21 20 21 26 31 32 29 26 24 24 26 21 16 18 20 19 17 16 15 17 19 20 20 17 14 12 12 12 12 12 13 13 12 12 11 9 8 8 7 6
25 28 29 28 28 27 27 31 34 34 31 29 29 29 30 29 29 31 33 33 33 33 34 34 33 33 33 32 33 36 38 39 41 42 40 39 42 43 39 37 36 31 28 28 26 22 21 21 23 29 32 30 27 25 25 25 21 17 19 20 19 18 16 16 19 21 19 17 15 13 12 11 11 11 11 12 12 12 12 12 10 9 9 7 6
22 24 26 26 25 26 27 29 32 31 27 27 28 28 29 29 29 30 31 31 33 35 36 35 34 32 30 31 32 32 34 37 41 44 43 42 44 45 43 42 41 35 30 29 26 24 23 22 21 26 31 30 27 25 24 24 21 19 19 19 19 18 17 17 19 20 17 15 14 13 13 13 12 11 12 12 12 11 11 11 11 10 9 7 6
17 19 23 23 22 24 26 27 29 28 25 27 30 29 29 29 29 29 30 29 31 34 35 34 34 32 30 31 32 32 32 34 39 45 45 44 46 47 45 45 44 39 33 30 28 26 24 22 22 25 28 29 27 25 24 23 22 21 20 19 19 19 18 17 18 18 16 14 13 14 14 14 12 12 12 11 11 11 11 10 10 10 9 8 8
15 18 20 21 22 23 23 25 27 27 25 27 29 28 27 28 28 29 30 31 31 32 32 32 32 32 30 29 29 32 34 35 40 45 48 46 47 49 48 46 46 43 36 31 31 30 26 23 24 25 25 26 26 25 24 23 22 22 21 20 20 20 19 18 18 17 15 14 15 15 15 14 13 12 12 11 10 11 11 10 10 11 10 9 9
10 14 16 18 20 21 21 22 24 24 24 25 26 27 26 25 26 28 30 31 33 33 31 30 29 30 31 31 32 35 38 39 40 44 48 48 47 48 48 47 47 46 41 37 37 36 31 28 27 25 23 24 26 26 25 23 21 21 22 22 22 22 21 19 17 17 16 16 16 15 13 13 13 12 12 13 13 13 13 11 11 11 10 10 11
2 7 10 12 15 17 18 19 20 21 23 24 25 26 25 25 26 28 29 31 33 32 29 26 27 30 33 34 34 34 35 37 39 43 47 48 48 48 47 46 47 48 44 40 38 36 33 30 28 24 23 26 27 27 25 22 21 21 22 22 22 22 21 20 19 19 18 16 16 14 12 11 12 13 14 15 14 13 13 12 11 11 11 11 10
4 1 2 5 8 10 12 13 14 16 19 21 22 23 24 25 26 26 29 31 30 29 28 26 26 29 32 33 32 30 29 32 36 42 47 49 50 51 49 48 49 48 43 39 36 34 30 28 27 25 26 27 27 26 24 23 23 22 22 22 22 20 20 21 22 20 18 16 15 13 11 11 13 15 16 15 14 13 13 13 12 11 11 11 10
7 6 4 2 1 3 6 8 9 12 15 18 21 22 23 25 28 29 32 32 30 29 29 30 31 32 33 33 30 25 25 31 37 43 49 52 54 54 53 54 53 49 44 39 37 34 31 29 29 29 29 27 24 22 22 23 24 22 20 19 18 18 18 21 21 19 16 15 13 12 12 13 15 15 14 14 13 13 14 14 12 11 10 9 9
9 8 7 6 5 4 2 1 3 6 9 11 14 17 19 21 25 28 30 32 33 33 33 33 36 36 35 35 31 23 24 34 42 45 48 51 53 52 53 55 54 49 45 41 38 35 34 34 34 32 28 24 21 20 20 20 20 20 19 18 16 16 20 23 21 18 17 16 13 13 14 15 14 14 13 13 12 12 14 15 13 11 9 8 9
10 9 9 7 6 6 5 5 5 4 5 6 9 13 16 18 20 23 25 26 30 33 35 36 39 37 34 36 36 34 36 44 48 48 48 51 55 55 54 52 47 43 41 42 40 39 38 36 33 30 26 23 23 21 20 19 20 21 21 20 17 16 20 22 20 18 18 17 14 14 15 14 14 13 13 13 12 12 14 15 12 10 9 8 8
11 10 9 8 7 7 7 6 7 6 6 7 9 11 13 16 19 22 25 27 29 31 33 36 40 40 37 37 40 44 47 49 49 49 52 55 58 59 59 56 49 44 44 44 42 39 38 35 31 28 27 27 26 24 21 21 23 24 22 18 17 18 20 20 19 19 19 17 14 13 14 14 13 13 13 13 11 11 13 13 11 9 9 8 8
13 11 9 8 8 7 6 6 6 6 7 7 7 7 8 11 15 18 21 23 27 30 33 37 41 44 46 45 45 46 47 48 48 49 53 57 59 60 60 59 55 52 50 46 38 33 33 33 31 29 29 28 25 24 23 22 24 25 23 19 18 20 21 21 21 21 18 16 14 13 13 13 13 12 12 12 11 11 11 11 10 8 8 7 7
14 12 10 9 8 7 6 6 5 5 4 5 4 4 4 5 8 13 17 20 22 24 28 32 36 42 47 51 53 53 50 50 51 51 53 56 57 56 56 56 56 56 51 40 30 26 29 30 28 27 28 27 25 23 23 24 26 27 25 22 21 22 21 21 22 20 16 14 14 13 12 13 12 11 11 11 10 10 10 9 9 8 7 7 7
14 13 12 10 8 8 7 6 5 4 4 4 3 3 4 5 5 7 10 15 19 22 27 32 34 37 42 48 55 58 56 54 54 54 56 57 56 54 53 53 54 53 48 39 31 28 28 26 24 25 27 27 25 23 23 23 25 25 23 20 20 22 22 22 21 18 15 14 13 12 11 12 11 11 11 10 10 9 9 8 8 7 6 6 6
13 13 12 11 9 8 7 6 5 5 5 5 4 4 4 6 7 7 7 10 13 18 25 32 35 38 42 46 51 55 57 58 58 58 58 59 59 57 53 50 47 43 41 39 38 36 33 29 27 28 30 30 28 27 27 25 25 26 25 21 19 21 23 22 18 16 14 13 12 11 11 11 11 11 10 10 9 9 8 8 7 6 5 5 6
12 11 11 10 9 7 7 7 6 5 5 5 4 5 5 5 6 7 9 11 13 16 20 27 34 40 44 47 51 54 57 60 63 64 62 60 60 59 53 46 40 36 34 35 37 37 35 33 30 30 33 34 33 33 33 31 30 30 29 25 22 21 21 19 17 17 15 13 11 12 12 11 11 11 10 10 10 9 8 7 6 5 5 5 5
10 10 10 9 7 6 6 5 5 5 4 4 5 5 6 7 8 8 11 14 15 15 18 24 30 32 29 30 37 48 61 66 65 64 65 64 62 56 49 42 37 33 31 30 31 32 32 30 29 31 34 36 35 34 33 32 31 30 28 27 24 22 20 19 19 19 17 13 12 12 12 11 11 11 10 9 9 9 8 7 6 6 6 5 5
8 8 8 7 6 6 5 4 5 4 4 4 5 5 6 8 10 10 13 16 16 16 18 20 21 19 18 21 18 28 50 62 65 64 62 59 54 47 43 41 38 35 34 34 34 35 33 30 30 32 35 36 35 33 33 32 31 30 29 27 25 23 22 21 21 20 17 13 11 12 11 11 11 11 10 10 10 9 8 8 7 6 5 5 5
8 7 7 6 5 5 5 5 5 5 4 4 4 4 5 7 9 10 12 13 15 16 18 19 19 24 29 25 10 10 20 30 44 53 49 42 40 40 41 40 37 35 35 36 36 37 36 32 30 32 36 37 35 33 32 32 31 30 28 26 25 24 22 21 20 19 16 12 11 12 12 11 11 11 10 10 9 9 8 7 6 5 5 4 5
8 7 6 5 5 4 4 4 3 4 4 4 5 5 5 6 7 8 9 10 11 15 19 20 22 30 36 32 27 28 22 18 24 35 36 32 31 33 34 35 34 33 32 33 35 37 36 33 31 33 36 36 33 32 32 32 30 29 28 28 27 25 21 18 18 17 14 12 12 12 12 12 11 11 10 10 9 8 7 6 5 5 5 5 5
7 6 5 5 5 4 4 4 3 3 4 4 5 5 5 5 6 7 7 8 9 12 16 19 21 24 30 33 35 35 28 22 23 28 29 29 29 29 28 30 30 30 29 31 34 35 33 32 34 34 34 33 32 32 32 31 30 30 30 28 25 21 18 16 16 15 14 13 13 12 12 12 11 10 9 9 8 7 7 6 5 5 5 5 6
8 7 6 6 6 5 5 5 5 4 4 4 4 4 5 5 6 6 6 6 7 9 13 17 20 21 25 30 33 33 28 22 21 22 23 23 25 27 27 28 29 28 28 31 34 34 33 34 34 34 32 32 32 32 32 31 31 31 28 24 20 18 17 16 15 15 14 13 13 13 12 12 11 10 9 8 8 7 7 6 5 5 5 5 6
9 9 9 9 8 7 6 6 6 6 5 5 4 3 4 4 5 5 6 5 5 7 10 13 16 18 19 21 26 28 25 21 20 20 19 20 21 23 25 27 28 28 29 32 34 33 33 33 33 32 31 32 32 32 32 32 31 28 24 19 17 16 15 15 15 15 14 13 13 13 12 12 11 10 9 8 8 8 7 7 6 5 5 6 6
10 10 10 10 10 10 9 9 9 7 6 5 4 4 4 3 3 3 4 4 4 5 6 8 12 14 15 15 18 21 20 18 18 18 18 19 20 20 21 24 26 27 29 31 32 32 31 31 31 31 31 31 31 31 31 30 28 24 20 17 17 16 15 14 14 15 14 13 13 13 13 12 11 10 9 9 9 8 7 7 6 5 6 6 6
11 12 12 11 12 12 12 12 11 9 8 7 7 6 5 4 3 2 2 3 4 4 4 5 7 10 11 12 14 15 15 16 17 17 17 18 19 19 19 21 23 26 29 31 31 31 31 31 31 31 32 32 31 29 28 26 24 20 17 16 16 15 15 14 13 14 14 14 13 13 12 12 11 10 9 9 9 8 7 6 6 5 5 6 6
13 13 13 13 13 13 13 12 12 11 11 10 9 8 8 7 5 4 2 2 3 3 3 3 4 6 8 10 11 12 12 14 16 17 17 19 20 21 21 22 24 26 28 29 30 30 31 31 32 33 33 32 30 28 25 23 21 19 16 15 14 13 14 13 13 13 14 14 12 12 12 11 10 10 10 9 8 7 6 6 5 5 5 5 5
15 15 15 14 14 13 13 13 12 12 12 11 10 10 10 9 7 6 5 4 3 2 2 2 3 4 5 8 11 13 14 15 17 18 19 20 21 21 20 20 23 26 27 27 28 28 30 32 33 33 33 31 29 27 25 22 20 18 17 15 14 13 13 13 13 13 14 14 13 11 11 10 9 9 9 8 7 7 6 6 6 5 5 5 4
17 16 16 16 15 15 14 14 14 13 13 12 11 10 10 8 8 7 6 4 3 2 1 2 3 4 5 7 10 14 15 15 16 18 19 19 19 19 19 19 22 24 26 26 27 27 30 32 33 32 31 30 28 26 24 22 19 18 17 16 15 14 14 14 14 14 14 14 13 11 10 10 9 9 8 8 7 6 6 6 6 6 6 5 4
18 17 17 16 16 15 15 15 15 14 14 13 12 11 10 8 7 7 6 4 3 1 1 3 4 7 9 9 10 13 17 18 18 19 20 20 20 21 21 22 24 25 27 27 28 29 31 32 31 30 30 29 28 26 24 21 19 18 17 16 15 13 12 12 13 14 15 14 12 11 10 9 8 7 7 7 7 7 7 7 6 6 6 5 4
18 18 17 17 16 15 16 16 16 16 16 15 13 12 12 10 7 6 5 4 3 3 2 1 4 8 13 14 11 12 16 18 19 20 22 23 23 24 24 25 26 27 28 29 29 30 31 31 30 30 30 29 27 25 23 21 19 18 17 15 14 12 11 11 13 14 14 14 12 10 9 8 7 6 6 6 7 7 7 7 7 7 6 6 5
20 20 19 18 17 16 16 16 16 16 16 16 15 14 13 11 9 7 5 3 1 1 1 2 3 8 13 15 14 14 15 16 18 20 22 23 24 25 25 25 26 27 28 29 29 30 30 31 30 30 30 29 27 25 23 22 20 19 18 16 15 13 12 12 13 14 14 14 12 10 9 7 6 6 6 6 6 7 7 7 8 7 6 6 5
Wind_Direction
200 204 205 205 206 208 210 212 214 215 216 218 218 219 220 221 223 224 226 227 228 229 231 233 235 235 234 231 228 230 230 228 234 237 236 235 235 234 235 234 231 230 233 237 239 241 241 239 239 242 244 243 238 232 225 223 223 222 224 224 225 228 222 218 234 246 243 245 245 239 232 230 236 242 238 233 233 230 228 229 239 267 286 296 307
201 204 204 203 206 207 208 209 212 214 214 216 217 217 219 222 223 224 224 226 228 229 230 232 234 235 234 232 230 230 233 235 236 235 234 234 234 233 234 233 230 229 231 234 236 238 239 238 238 240 241 241 239 233 225 223 222 220 222 223 221 226 226 222 229 243 247 242 239 240 236 235 239 242 238 231 226 226 228 236 250 269 284 294 303
201 203 203 204 205 205 205 207 209 211 211 212 214 214 217 221 224 224 224 225 227 228 230 231 233 234 233 232 231 231 233 235 234 234 234 234 233 233 234 233 231 229 230 232 233 234 236 236 235 236 239 239 237 234 228 225 224 222 223 225 223 226 231 230 228 235 243 238 233 235 231 232 238 239 237 234 230 231 236 245 257 267 281 294 302
199 200 202 204 203 202 203 204 206 208 209 211 213 213 214 217 221 224 223 222 224 228 230 230 231 233 232 231 230 230 232 232 232 233 234 234 233 233 234 234 232 231 232 233 232 231 232 232 231 232 237 238 235 234 231 229 229 226 225 227 227 226 231 234 231 229 236 236 237 239 231 229 235 236 238 240 241 244 248 256 263 270 280 289 299
197 198 200 201 200 201 203 204 205 206 208 210 212 212 212 213 217 221 221 219 221 226 228 228 229 231 231 231 229 229 231 231 231 231 232 233 233 233 234 235 234 234 235 234 232 231 230 230 230 232 236 235 232 232 232 232 232 229 225 225 228 227 228 232 230 227 230 233 238 244 242 236 237 243 247 249 251 254 258 263 268 274 281 283 289
196 195 196 198 199 200 202 203 205 206 206 209 210 210 211 211 212 216 219 218 218 222 225 226 227 229 231 231 230 230 231 230 230 230 231 232 232 232 234 235 236 236 236 235 234 232 231 230 230 232 235 234 232 232 234 234 232 229 226 225 227 228 226 227 227 225 227 232 237 242 243 240 239 246 253 254 254 257 261 266 270 275 283 284 285
192 192 195 197 198 199 201 203 204 204 204 206 207 207 209 210 211 213 216 216 215 216 220 225 227 229 230 231 230 230 230 229 230 230 229 230 231 231 232 233 235 235 236 235 233 232 232 231 230 232 235 236 234 234 236 235 232 230 228 227 228 228 226 224 223 222 224 229 235 239 240 242 243 247 256 259 259 260 262 266 267 270 280 286 294
191 193 195 197 199 202 203 204 203 203 203 204 205 206 207 209 210 212 214 214 214 215 218 222 226 228 229 230 230 230 230 229 229 228 228 229 230 231 231 232 232 234 235 234 231 231 232 231 232 235 238 238 236 235 237 237 234 230 229 228 227 227 226 224 220 219 222 227 233 239 239 240 242 248 255 257 255 252 253 260 266 268 272 282 295
195 196 194 199 204 206 205 204 202 201 201 202 205 206 205 208 210 212 215 215 214 215 217 219 223 225 227 228 228 228 229 229 228 227 226 227 228 230 231 231 231 232 233 231 229 231 232 231 233 238 242 242 240 238 238 240 238 233 232 230 227 225 226 225 221 219 222 226 230 237 240 235 233 240 246 246 245 246 249 257 266 270 275 285 297
199 197 199 205 208 207 206 204 201 201 202 205 208 208 207 209 211 212 216 217 215 215 217 218 219 221 223 225 226 226 227 229 229 227 226 226 227 228 229 230 231 232 231 227 227 230 232 233 236 241 244 244 243 240 237 238 239 238 238 236 231 227 223 222 223 222 222 227 230 235 239 237 235 239 242 245 250 253 254 257 260 267 277 291 300
199 200 206 208 206 205 206 206 204 204 206 208 209 209 209 210 211 213 215 216 216 217 218 218 217 218 219 222 223 223 226 229 229 228 228 227 226 227 228 230 230 230 229 226 226 229 231 232 235 240 242 242 242 240 236 233 235 237 239 239 239 235 228 223 224 223 223 229 232 235 240 245 247 244 237 240 251 256 256 253 253 260 270 279 286
199 203 207 205 202 203 204 204 203 205 206 207 207 208 209 210 211 212 213 214 215 216 217 219 219 219 218 220 222 222 227 230 229 228 228 227 225 226 227 229 229 228 227 227 228 229 229 228 230 235 238 239 239 238 233 230 232 235 236 238 241 241 238 233 231 227 224 227 231 235 241 246 246 238 233 241 251 254 252 249 250 256 255 253 262
200 203 203 201 202 203 201 200 202 204 205 205 205 206 207 209 211 211 211 213 214 215 217 219 220 220 218 219 221 222 227 231 230 228 228 228 227 225 225 228 229 226 226 228 228 228 225 223 224 229 234 237 238 235 231 231 235 239 238 238 241 243 242 241 239 236 231 230 233 236 237 239 240 242 249 255 253 247 244 245 249 251 249 255 266
202 203 202 200 201 201 199 200 202 203 203 202 201 203 206 209 211 211 211 213 214 216 218 218 220 222 221 221 222 223 227 230 231 229 228 228 227 225 224 226 227 226 227 230 229 227 225 222 222 225 229 232 234 231 228 230 233 236 236 236 238 240 240 240 241 240 237 234 236 239 240 243 247 254 264 263 252 241 239 241 245 250 256 265 272
205 204 201 200 200 198 199 200 201 200 200 199 200 204 206 208 209 210 211 212 216 219 218 218 221 223 223 223 224 225 228 230 230 229 228 228 227 225 224 225 224 223 227 231 230 227 227 225 222 222 224 228 230 229 226 225 224 224 228 229 230 233 235 235 236 237 235 234 236 241 245 249 255 262 265 259 247 237 239 242 245 252 259 263 271
203 202 199 199 199 198 199 200 200 200 198 198 202 204 206 208 208 207 209 213 217 219 217 218 221 223 223 225 225 227 229 231 230 229 228 228 227 225 224 224 223 222 226 230 230 227 228 226 219 218 222 225 228 229 226 221 218 218 223 224 225 228 228 227 231 235 235 235 238 244 248 252 257 257 253 247 238 230 235 242 241 240 247 257 267
200 199 198 196 195 197 200 200 200 200 198 200 203 205 206 208 207 205 207 210 213 216 217 219 222 222 222 224 225 227 230 230 229 228 226 226 225 224 224 224 224 223 225 229 229 227 227 225 216 215 221 223 226 228 224 217 216 217 219 218 220 224 224 224 230 235 235 235 237 240 244 248 251 248 244 243 238 224 215 219 225 230 241 256 267
200 198 196 193 196 201 204 203 202 200 201 203 205 205 206 208 206 206 208 211 213 215 217 219 221 221 221 222 222 222 224 226 226 224 223 224 223 223 223 223 224 225 225 227 227 223 223 224 218 217 222 223 226 228 221 214 212 211 213 214 216 221 220 218 224 227 224 222 224 227 232 237 240 239 240 242 236 221 210 212 224 235 242 255 265
199 195 194 197 203 206 204 203 202 202 204 206 206 205 206 207 207 207 210 213 214 214 214 215 217 218 218 220 220 218 217 220 222 221 220 221 221 220 221 222 223 224 223 223 224 218 215 221 222 222 224 224 227 227 218 211 209 205 206 210 214 217 215 210 214 215 210 209 212 217 222 224 225 226 231 234 229 218 212 217 229 237 243 254 252
196 197 199 202 207 207 202 201 203 205 207 208 206 207 207 208 208 209 211 214 216 217 217 217 218 217 216 216 216 215 213 214 218 219 217 218 219 217 216 218 220 222 220 220 220 214 209 214 221 224 225 225 227 224 214 211 211 203 201 206 210 211 209 210 213 211 206 206 207 208 210 211 211 214 219 221 219 217 218 226 234 232 235 242 233
204 205 205 204 205 205 204 204 206 208 210 208 207 209 211 210 210 210 212 214 216 218 219 221 222 223 222 220 219 216 212 210 213 214 213 214 216 214 211 213 216 217 216 215 213 208 205 207 215 221 222 223 224 218 209 211 211 202 199 204 207 206 205 208 212 209 205 203 199 195 198 203 203 203 205 208 211 217 224 228 227 221 221 227 224
207 207 206 205 206 206 206 207 208 209 209 207 206 209 211 211 212 213 214 215 218 220 222 224 226 227 228 230 229 226 221 215 213 213 211 211 213 211 209 212 214 213 211 210 206 204 206 205 208 216 217 217 216 210 205 207 207 200 199 203 205 208 209 208 207 205 201 196 191 192 199 204 200 197 201 206 210 213 216 218 215 209 208 213 219
207 207 208 208 208 208 209 210 210 210 208 207 207 210 211 211 212 213 213 214 219 223 224 226 228 230 230 230 229 227 225 221 217 216 213 211 212 210 209 212 214 210 207 206 203 203 205 204 205 212 213 210 207 204 202 203 200 198 202 205 206 209 210 205 201 198 193 189 192 197 202 202 199 198 202 207 209 209 206 203 201 199 201 211 224
206 207 210 212 213 213 214 213 213 212 211 210 211 214 214 212 214 215 215 216 220 225 226 225 225 225 227 227 225 222 220 219 218 219 217 215 213 210 208 210 212 210 207 206 206 205 203 202 206 212 210 204 201 199 197 198 197 197 200 203 204 205 204 199 196 191 186 190 198 202 201 199 198 201 205 205 203 202 198 192 193 197 205 221 236
208 209 212 214 216 217 218 217 216 215 215 213 214 217 217 216 218 220 221 222 224 228 229 227 223 223 224 223 223 220 216 215 217 218 217 217 215 212 208 207 209 210 208 208 211 212 210 209 213 211 201 194 194 194 194 194 194 194 196 198 198 199 198 194 191 188 189 196 202 201 198 197 198 203 208 205 199 196 194 192 197 206 216 231 245
192 216 220 221 221 221 222 222 221 220 220 218 219 221 221 220 222 223 223 225 227 229 229 227 224 226 227 226 225 221 212 208 212 215 213 213 214 213 209 207 209 210 208 208 211 212 211 212 211 200 187 185 188 189 191 191 190 191 195 194 192 193 193 191 189 189 194 200 201 198 194 194 198 204 207 203 197 194 195 194 199 210 221 230 242
67 79 237 239 237 233 231 231 230 227 224 223 224 226 225 225 227 227 227 228 229 228 228 227 226 229 232 233 232 225 211 203 206 209 208 208 210 210 207 207 208 207 204 202 203 203 202 202 197 185 179 182 187 189 190 188 187 189 191 190 190 192 193 194 193 193 197 198 195 191 189 189 194 199 200 197 195 196 198 198 203 213 217 218 230
61 59 54 44 307 256 247 245 244 241 236 233 232 232 231 231 232 232 230 229 228 228 228 228 228 230 233 235 233 223 209 204 205 207 206 205 206 205 203 204 204 201 197 195 193 191 189 185 178 174 174 176 179 183 184 182 182 182 181 184 189 193 194 196 195 193 194 192 186 185 186 188 190 191 190 193 196 199 200 202 208 215 212 214 233
63 61 59 57 54 48 21 325 285 264 257 255 251 247 243 241 242 243 240 234 231 231 231 231 233 232 231 233 230 216 203 208 212 212 208 205 204 204 204 203 200 195 193 190 183 176 172 168 164 164 167 169 168 171 173 174 175 175 175 180 186 188 192 194 193 190 190 188 185 186 187 187 187 185 187 194 197 198 203 206 211 215 216 224 244
68 64 60 56 55 57 57 48 29 358 320 309 298 282 270 264 262 264 262 254 246 242 239 238 239 238 234 233 230 222 219 221 220 213 208 205 203 204 206 205 198 191 189 186 176 167 163 161 159 160 163 166 167 168 169 170 170 170 175 181 181 180 186 189 188 188 191 190 188 188 187 187 187 188 194 200 198 199 207 211 210 213 219 230 248
75 70 65 60 57 57 56 49 37 23 4 347 332 313 299 289 281 276 273 271 268 265 259 254 251 247 243 240 236 232 231 229 221 212 208 207 204 202 203 201 195 189 186 181 172 165 162 160 159 162 165 167 168 168 168 169 169 170 173 178 178 177 180 182 184 188 191 191 190 189 188 189 191 193 198 203 200 198 203 206 205 208 217 230 247
74 71 68 66 63 59 56 49 38 27 16 9 359 342 326 311 302 299 294 286 280 276 272 269 263 258 253 248 243 238 232 225 219 214 210 207 204 201 198 193 188 186 184 178 170 164 162 160 160 162 165 165 164 164 165 166 169 171 170 171 177 179 179 182 186 188 189 189 190 190 191 193 195 197 200 202 202 197 194 195 198 203 214 230 243
65 62 60 61 60 58 56 44 29 21 18 20 16 359 345 326 314 318 325 324 315 302 291 284 275 266 258 250 245 242 233 221 216 212 207 203 201 198 192 186 182 180 175 167 162 162 162 162 163 162 159 159 161 164 167 168 170 173 173 174 177 179 179 184 189 188 188 191 192 191 193 195 196 198 200 199 200 198 192 191 194 198 211 229 242
60 57 58 63 64 59 55 42 31 30 32 31 30 21 9 2 343 326 328 333 332 323 314 307 295 280 266 255 248 243 233 220 211 205 200 198 196 192 185 177 174 171 165 158 159 164 165 167 169 162 156 156 159 163 165 166 169 173 174 172 172 175 181 186 189 189 191 196 195 192 194 194 194 196 196 192 194 197 195 194 195 197 211 233 249
55 53 54 58 60 57 51 44 38 37 35 28 20 10 4 359 355 349 337 329 326 321 316 312 304 291 276 264 254 243 229 215 204 197 193 191 188 180 170 162 159 159 158 160 163 165 167 172 174 168 161 158 160 162 164 166 172 176 174 168 165 173 182 185 186 188 190 192 191 189 188 187 188 190 189 186 190 198 201 201 201 202 212 233 253
47 45 43 45 47 46 45 42 35 28 27 22 6 355 354 347 337 338 341 339 338 331 319 312 306 296 283 271 258 242 223 207 196 189 185 182 176 167 159 154 154 155 158 162 162 162 167 175 176 170 165 163 164 168 170 174 178 180 178 173 169 173 178 181 183 185 185 182 181 181 179 181 184 187 190 192 197 205 208 204 199 199 209 228 254
47 42 35 32 32 33 33 33 27 19 19 19 8 0 354 343 335 343 353 355 355 352 343 332 322 312 303 293 270 239 213 197 186 179 173 169 165 161 155 152 152 151 151 155 157 157 164 173 174 169 166 165 166 170 173 176 178 178 176 175 174 175 177 179 181 181 178 173 173 176 180 185 189 192 198 202 203 204 202 192 186 191 200 220 257
54 46 37 28 23 18 12 8 10 17 29 32 24 18 3 350 348 358 5 1 357 4 11 1 343 337 350 346 304 232 201 182 167 159 157 157 155 152 150 149 150 149 149 154 159 162 167 174 174 170 167 166 168 172 174 175 176 175 175 175 176 176 175 176 177 176 173 170 172 178 186 194 195 195 201 204 200 195 189 182 183 194 202 219 254
48 42 38 36 31 16 2 355 358 7 16 19 18 22 18 8 5 15 22 12 358 5 21 23 11 8 12 15 33 149 165 156 142 137 138 140 141 143 146 147 148 149 152 159 165 166 167 171 174 171 168 168 170 173 174 174 175 175 175 174 172 171 169 170 172 173 172 172 176 183 191 198 196 194 199 201 197 191 184 179 187 205 220 242 267
39 34 34 38 38 23 7 359 358 359 359 358 4 13 18 17 13 19 34 36 17 9 18 29 34 34 34 43 76 95 84 70 90 103 109 117 126 136 141 141 143 149 157 163 167 166 164 167 171 170 169 169 171 172 173 174 174 174 171 169 167 167 167 169 171 173 174 176 181 188 195 197 194 193 198 202 198 189 179 177 187 204 226 254 277
36 33 28 25 25 22 13 6 8 10 5 357 2 6 5 7 13 16 30 49 48 35 28 30 41 58 69 76 87 94 89 76 77 90 103 116 125 130 133 136 144 152 158 163 166 165 164 165 167 167 167 169 171 172 173 174 172 169 167 166 166 166 168 171 173 175 177 181 187 194 198 196 194 195 200 201 196 184 174 176 189 205 226 254 273
29 26 23 20 20 19 15 8 5 8 11 9 10 12 3 357 8 20 27 37 51 61 58 48 48 65 87 98 104 107 105 99 98 104 112 120 126 131 136 142 149 155 160 166 169 167 164 164 165 167 168 169 171 172 172 170 168 166 165 165 165 167 170 174 176 178 180 185 192 197 197 195 196 201 203 200 192 183 175 178 193 213 236 260 273
22 19 19 21 21 19 17 13 5 1 5 9 12 20 18 3 3 22 35 36 37 51 60 62 63 70 82 99 112 116 115 112 113 116 119 123 128 135 143 149 155 162 168 171 171 168 165 163 163 166 169 171 171 171 169 168 167 165 164 163 165 168 173 177 180 181 185 189 194 196 196 197 200 205 207 203 194 182 176 180 195 218 243 262 271
23 19 17 18 20 20 18 15 11 4 359 1 5 15 26 22 8 18 38 48 51 51 52 61 74 81 85 93 104 112 116 119 120 121 124 129 135 141 147 153 159 165 170 171 170 167 162 159 161 166 170 170 169 168 167 167 166 164 161 163 168 173 179 182 183 186 190 193 195 197 198 200 203 206 205 201 194 184 179 185 201 223 246 260 268
30 25 21 18 19 21 19 15 14 6 354 351 356 358 357 1 6 16 47 69 76 77 75 72 78 86 91 96 100 107 116 125 129 130 129 131 136 142 148 153 158 162 165 166 165 161 158 159 163 167 167 166 166 165 164 163 162 161 161 166 173 180 185 187 188 191 195 196 198 201 201 201 205 207 203 198 194 189 185 191 204 223 240 251 255
37 33 30 24 22 22 20 17 15 12 5 1 -0 353 345 341 343 351 10 62 99 109 115 116 102 98 103 112 118 124 131 134 135 137 138 141 145 149 151 153 155 156 158 158 157 157 159 164 166 166 164 163 162 160 157 155 156 159 163 170 176 183 189 192 195 199 201 200 200 202 202 201 202 201 197 195 194 192 192 199 210 221 233 238 240
39 35 33 29 24 21 19 15 14 17 16 13 11 7 358 346 334 337 355 18 41 75 109 133 132 126 131 138 141 145 147 145 143 143 145 146 148 150 151 151 150 150 151 153 155 159 164 166 165 164 162 159 156 154 153 153 156 160 166 173 177 182 186 190 191 195 200 201 200 199 198 196 194 191 191 196 199 197 197 204 209 214 218 219 220
41 38 36 33 29 25 20 16 16 18 18 14 11 11 6 351 338 342 358 13 20 35 109 148 141 139 148 152 152 153 154 151 148 148 146 143 141 143 145 148 150 151 154 157 160 163 165 165 164 163 160 156 153 154 154 155 159 163 168 174 178 179 182 184 186 191 198 201 198 191 186 187 189 189 191 197 201 201 200 199 198 198 198 198 204
42 41 38 34 30 26 23 20 19 18 15 11 10 11 10 4 357 1 5 2 349 331 200 166 154 154 160 162 160 159 159 156 151 148 145 143 144 146 147 149 153 157 160 162 164 165 165 165 165 162 159 157 157 158 157 158 160 163 167 172 176 179 183 188 193 198 198 193 185 179 179 182 185 186 189 195 197 196 194 190 187 186 185 185 194
38 38 35 29 24 22 22 24 25 22 16 13 12 13 13 12 10 10 14 8 344 314 272 195 153 157 164 167 165 160 155 152 150 148 147 148 150 153 152 153 157 161 163 164 164 165 167 168 167 164 162 161 161 161 159 157 157 160 164 166 168 173 182 189 192 193 188 180 173 173 175 177 178 180 184 187 188 187 186 184 181 181 181 181 185
37 37 35 30 25 22 22 25 26 24 21 19 18 17 16 15 12 10 15 29 57 127 171 156 149 157 163 165 165 161 154 149 148 150 150 150 152 154 156 158 160 163 164 165 165 167 170 171 170 167 166 165 165 163 160 157 156 155 155 155 158 165 174 179 179 177 173 169 168 169 170 170 172 174 177 181 183 182 181 178 175 174 175 175 177
Height
744 747 750 754 757 760 763 766 769 772 774 776 778 780 782 784 786 788 790 792 794 796 797 799 801 802 803 805 806 808 810 811 813 814 817 818 820 822 823 825 827 829 831 832 834 836 838 840 842 843 845 846 847 848 849 850 850 851 851 852 852 853 853 854 854 854 855 856 856 856 856 856 856 856 857 857 857 856 856 856 856 856 857 857 856
738 741 745 748 751 754 758 761 764 767 769 772 774 776 778 780 782 784 786 787 789 791 793 795 796 798 799 801 802 804 805 807 809 811 813 815 817 819 820 822 824 825 827 829 830 833 835 837 839 841 843 844 845 846 847 847 848 849 849 849 850 850 851 852 852 853 853 853 854 854 854 855 855 855 855 855 855 855 855 855 854 855 855 855 855
732 735 739 742 745 750 753 756 759 762 765 767 769 771 774 775 777 779 781 783 785 787 789 790 792 793 795 796 797 799 801 803 805 807 809 811 813 815 817 818 820 821 823 825 827 829 832 835 837 838 840 841 842 843 844 845 846 846 847 847 848 848 849 850 850 851 851 851 852 852 852 853 853 853 854 854 854 853 853 853 853 853 853 853 854
727 730 733 737 741 745 748 751 754 756 759 762 764 767 769 771 772 774 777 779 781 782 784 786 788 789 790 791 793 795 797 799 801 803 805 807 809 811 813 815 816 818 819 821 823 826 828 831 834 835 837 838 839 840 841 842 842 843 844 844 845 845 846 847 848 848 849 849 849 850 850 851 851 852 852 852 852 852 852 852 852 852 852 852 852
721 724 728 733 737 740 742 745 748 750 754 756 759 762 765 766 768 770 772 774 776 778 780 782 783 784 785 787 788 790 792 794 796 798 801 803 805 807 809 811 813 814 816 817 819 822 825 827 829 831 832 833 834 835 836 837 838 839 840 841 841 842 843 843 844 845 846 846 847 847 848 849 849 850 850 850 850 850 850 849 849 850 850 850 850
716 719 724 729 731 734 736 739 742 745 748 751 754 757 760 762 763 765 767 769 771 773 775 776 778 779 780 782 783 785 788 790 792 794 797 799 801 803 805 807 809 811 812 814 816 818 820 823 825 826 827 828 829 830 831 832 834 834 836 837 838 839 839 840 841 842 843 844 845 845 846 846 847 847 847 848 848 848 848 848 847 847 847 847 848
711 715 719 723 725 727 729 732 736 739 742 745 748 751 754 756 758 759 761 763 766 768 769 771 772 774 776 777 779 781 783 786 787 790 792 794 796 799 801 803 806 807 809 810 813 815 816 818 819 820 820 821 822 824 825 827 828 829 831 833 834 836 837 837 838 839 840 841 842 843 843 844 845 845 845 845 846 846 846 846 845 845 845 845 845
706 710 714 717 719 720 723 727 730 734 737 739 743 746 748 750 752 754 756 758 761 763 764 766 767 769 771 773 775 777 779 781 783 785 787 790 792 795 797 799 801 803 804 806 809 810 812 813 814 814 814 814 817 819 820 822 824 825 827 829 832 833 835 835 836 836 837 838 839 840 841 842 842 842 842 843 843 844 844 844 843 842 843 842 843
700 705 708 710 711 714 719 723 726 730 732 734 737 740 743 745 747 749 751 753 756 758 760 761 762 764 766 769 771 773 774 776 777 780 782 785 787 790 792 795 797 799 800 802 805 806 807 809 809 809 808 810 812 814 816 818 821 823 825 826 829 830 832 833 833 834 835 835 836 837 838 839 839 840 840 840 840 840 841 841 840 839 840 840 840
695 700 701 702 705 711 715 719 722 725 727 729 732 735 738 740 742 744 746 749 751 753 755 756 757 760 762 764 766 768 769 770 772 774 777 780 783 786 788 790 792 794 795 798 801 802 803 805 805 805 805 807 809 811 813 815 818 820 822 823 825 827 828 830 830 831 832 832 833 834 835 835 836 837 837 837 837 837 837 838 837 837 838 838 838
690 693 693 696 703 708 711 714 717 719 722 724 727 730 733 736 738 740 742 745 747 749 750 752 754 756 758 760 761 762 763 764 767 770 773 776 779 781 783 785 787 789 791 794 796 798 799 801 802 802 802 804 806 808 810 812 814 817 818 820 821 823 824 826 827 827 828 829 830 831 832 832 833 834 834 834 834 834 835 835 835 836 836 836 836
684 686 689 694 700 703 706 709 712 714 717 719 722 725 729 731 733 736 738 740 742 744 747 748 750 752 754 755 756 757 757 759 762 765 768 771 774 777 779 781 782 784 786 789 791 794 796 797 798 798 799 801 803 805 808 810 811 813 814 816 817 819 820 822 823 825 826 826 827 828 829 830 831 832 832 832 832 832 832 833 833 834 834 833 833
679 681 685 691 694 697 701 704 706 709 711 714 718 721 724 726 728 730 733 735 738 740 742 744 746 748 749 750 752 753 754 755 758 761 764 767 770 773 775 777 777 779 781 784 787 790 792 793 794 795 796 797 799 802 804 806 808 809 811 812 813 815 816 818 819 821 823 824 824 825 826 828 828 829 829 829 829 830 830 831 832 832 832 831 831
674 677 681 685 688 692 696 698 701 703 706 710 714 716 719 721 723 726 729 732 734 736 737 739 742 744 745 746 748 749 750 751 753 756 759 762 765 769 772 773 773 775 777 780 783 785 787 788 790 791 792 794 796 798 801 803 805 806 807 808 809 810 812 814 816 818 820 821 822 823 824 825 826 826 827 827 827 828 829 829 830 830 830 830 830
672 675 679 682 685 689 691 694 697 700 703 707 709 712 714 717 719 722 724 727 730 731 732 735 737 738 740 742 743 743 744 746 749 752 755 758 762 766 768 770 770 771 773 776 779 781 782 784 786 788 789 790 792 794 797 800 801 803 804 805 806 807 809 810 812 814 816 818 819 820 822 823 824 824 825 825 825 826 826 827 827 828 828 828 828
669 673 676 679 683 686 689 692 695 697 700 703 705 708 710 712 714 717 720 722 724 726 727 729 731 732 734 736 737 737 740 743 745 748 752 756 760 763 765 766 767 768 770 772 775 777 778 780 783 784 786 787 788 791 794 797 798 800 801 802 803 805 806 807 808 810 812 814 816 818 819 821 822 822 822 822 823 824 824 824 825 826 826 826 826
665 668 671 675 679 682 685 688 691 693 697 698 700 702 704 706 709 712 714 716 717 719 721 723 725 726 727 730 731 733 736 739 741 744 748 753 757 760 761 763 765 766 767 769 771 773 775 776 779 781 782 784 785 788 791 794 795 796 797 799 800 802 803 805 806 808 810 812 813 815 816 818 819 819 819 820 821 822 822 823 823 823 824 824 823
660 663 667 670 674 677 679 682 686 689 691 692 694 696 699 701 704 705 707 709 710 712 714 717 719 719 721 723 724 726 731 734 736 738 742 747 751 754 757 760 762 763 765 767 769 770 771 773 775 777 778 779 781 784 787 790 792 793 794 796 797 799 801 803 804 805 807 809 811 812 814 815 816 816 817 817 818 819 820 820 820 821 821 821 821
657 661 664 667 669 671 674 677 680 683 685 686 689 692 694 696 698 700 703 704 705 707 709 710 711 710 712 714 716 719 723 726 728 730 734 739 744 749 753 756 758 760 762 764 766 767 768 770 771 773 774 776 778 781 784 786 788 789 791 793 794 796 798 800 802 803 805 807 808 810 811 813 814 814 815 815 816 817 817 818 819 819 820 820 820
656 659 662 665 667 669 672 674 676 678 680 682 685 688 689 692 695 697 699 701 702 704 706 705 704 703 703 705 706 709 713 717 719 721 726 731 736 741 746 749 752 755 758 760 762 763 764 766 767 768 771 772 775 777 780 782 784 786 788 789 791 793 795 798 800 801 803 805 806 808 809 811 812 812 813 813 814 815 815 816 817 818 818 818 819
654 657 659 662 664 667 669 671 672 674 677 679 683 685 686 689 691 692 693 695 697 699 700 700 700 700 701 702 703 704 706 709 711 713 718 722 727 732 737 739 743 748 752 754 757 758 760 762 762 764 766 768 771 774 776 778 780 782 784 786 788 790 793 795 797 800 802 803 805 807 808 809 810 810 811 812 812 813 814 814 815 816 816 817 817
653 655 657 659 661 663 665 667 669 671 674 676 678 680 682 685 687 688 689 691 692 693 694 696 697 698 700 703 704 705 706 707 707 708 709 713 717 723 726 729 734 740 744 747 750 752 754 756 757 759 761 764 767 770 772 774 776 778 781 783 786 788 791 793 796 798 800 801 803 804 806 807 808 808 809 810 810 811 812 812 813 814 814 815 816
653 654 656 657 659 661 662 664 666 668 670 671 673 675 678 680 682 683 685 687 688 689 690 692 693 695 697 699 700 702 705 706 706 706 706 706 708 713 717 722 727 732 736 739 742 746 748 751 752 754 756 760 763 766 769 771 772 775 778 781 783 786 789 792 794 796 798 799 800 802 803 804 805 806 806 807 808 809 809 810 811 811 812 813 814
651 653 654 655 657 659 660 662 664 665 667 668 670 672 674 676 678 680 681 683 684 686 686 687 688 689 691 693 693 695 697 698 698 700 703 704 704 705 708 714 719 724 728 732 735 739 742 744 747 749 752 757 760 763 765 768 770 772 775 778 781 784 787 790 792 794 795 797 798 799 800 801 802 803 804 804 805 806 807 808 809 810 811 812 813
649 651 652 654 655 657 658 660 661 663 665 666 668 670 672 674 675 677 678 680 681 681 682 683 683 683 684 684 683 684 686 688 690 692 696 701 703 703 704 707 712 717 722 725 728 732 736 739 742 746 750 754 758 761 763 766 768 771 773 776 779 781 784 787 789 791 793 794 795 796 797 798 799 800 801 802 803 804 805 806 807 808 809 810 811
649 650 651 653 654 655 657 658 660 661 663 664 666 667 669 671 672 673 675 676 676 676 677 678 679 679 678 675 674 676 678 680 682 685 689 694 699 702 704 706 708 711 715 719 723 727 731 735 739 743 748 752 755 759 761 764 767 770 772 775 777 780 782 783 786 788 790 791 792 793 794 796 797 798 798 799 801 802 803 804 805 807 808 809 809
649 650 651 653 654 655 656 658 659 660 661 662 663 665 666 667 668 669 670 671 671 672 673 673 674 675 674 672 672 675 676 676 676 679 683 687 691 696 700 703 705 708 711 714 718 722 727 732 736 740 745 750 754 757 760 762 765 768 771 774 776 778 780 781 782 785 787 788 790 791 792 794 794 795 796 797 799 800 801 802 803 805 806 806 807
649 650 651 653 654 654 656 656 657 658 659 660 661 661 662 663 664 663 663 664 665 666 667 668 668 668 669 670 671 672 672 671 669 670 674 678 683 689 693 694 696 702 706 709 712 717 723 729 733 737 742 747 752 755 758 761 763 765 769 772 775 777 778 779 781 783 785 786 787 789 790 791 792 793 794 796 797 798 799 800 801 802 803 804 804
650 651 652 653 654 654 655 655 656 657 658 658 659 659 659 660 660 659 659 660 661 660 661 661 662 662 662 664 665 666 664 662 662 665 668 673 679 687 691 690 689 693 699 704 708 712 718 724 727 732 738 743 748 751 755 757 759 762 765 769 772 774 775 777 779 781 782 784 785 786 788 789 790 791 792 794 795 796 797 798 799 799 800 801 801
652 652 653 654 655 655 655 655 656 656 657 657 657 657 657 658 658 657 657 657 658 658 657 656 656 657 657 656 656 656 653 651 654 659 663 666 670 677 685 690 691 692 696 700 704 708 713 717 721 725 732 738 742 746 750 753 755 758 761 765 768 770 772 775 777 778 780 782 783 785 786 787 788 789 790 792 793 794 795 795 796 797 798 799 800
653 653 654 655 655 655 655 655 655 656 656 656 656 656 655 655 655 655 655 655 654 654 654 653 652 652 651 650 648 646 644 644 648 652 654 657 660 662 668 676 684 689 693 697 700 702 705 709 714 720 726 731 736 741 745 748 751 754 758 763 765 767 770 772 774 776 778 780 782 783 784 784 786 787 788 789 791 791 792 793 794 795 796 797 798
652 654 655 655 655 656 656 655 656 655 655 655 655 655 655 654 653 652 651 651 650 650 649 648 646 645 645 644 641 639 637 638 641 644 647 651 655 658 660 663 669 677 685 691 696 700 702 705 710 714 720 725 730 735 740 744 747 750 754 759 763 764 766 769 771 773 776 778 780 781 781 782 783 784 785 787 788 789 790 791 791 792 793 795 796
652 653 654 655 656 656 656 657 657 656 656 655 655 655 654 653 651 649 648 646 646 645 644 642 639 636 635 634 632 631 629 629 631 636 641 646 651 657 661 660 662 669 678 688 697 702 706 709 711 711 713 719 725 731 736 740 743 747 751 755 758 761 764 766 769 772 775 776 777 778 779 780 781 782 783 785 786 787 788 788 789 790 791 792 794
654 654 655 656 656 657 657 657 657 656 656 655 655 654 653 651 650 648 646 643 642 640 638 636 633 629 625 621 620 620 620 620 621 626 632 639 646 653 658 660 663 667 673 683 694 702 707 713 715 711 710 715 721 728 733 737 741 745 749 752 755 758 761 764 767 770 772 774 775 776 777 778 779 780 781 782 784 785 786 786 787 788 789 791 792
656 656 656 657 657 658 658 658 657 657 656 655 654 653 652 651 650 648 647 645 643 639 635 630 625 621 617 612 608 608 610 609 609 614 622 630 636 643 652 658 662 666 671 678 686 694 703 712 716 713 710 712 718 723 729 734 739 743 746 748 752 756 759 762 765 768 770 772 774 775 776 777 778 779 780 781 782 783 784 784 785 785 787 789 790
658 658 658 658 659 659 659 659 658 658 657 656 655 654 653 652 650 649 648 647 645 641 635 627 618 610 605 601 598 597 598 598 598 602 611 621 628 635 643 650 655 661 669 675 680 686 697 708 713 712 709 710 715 720 725 730 735 740 743 746 749 753 757 760 763 765 768 770 772 773 774 775 777 777 778 779 780 781 782 782 783 784 786 788 789
660 659 660 660 660 660 660 660 659 658 657 656 655 655 654 652 651 650 649 648 645 640 635 627 616 606 600 596 592 589 587 587 588 592 601 612 624 632 639 645 652 660 668 675 679 685 695 705 710 709 707 708 713 718 723 728 734 738 741 744 747 751 754 757 760 763 766 768 769 771 773 774 776 776 777 778 779 779 780 780 781 782 785 787 788
661 661 661 662 662 662 661 660 659 658 657 657 656 655 654 653 651 651 651 649 646 640 634 629 623 612 602 595 589 585 584 581 580 587 599 611 621 630 637 645 653 659 665 672 679 685 694 703 707 706 705 707 712 718 722 727 732 736 739 742 746 749 753 756 759 762 764 766 767 769 772 774 775 775 776 776 777 777 777 777 778 780 783 784 786
662 662 662 662 663 663 662 661 661 660 658 657 656 654 653 652 651 651 651 650 647 642 635 631 625 614 603 596 591 592 594 586 575 580 598 612 622 631 639 646 653 658 664 672 679 683 690 699 704 704 704 706 711 716 721 726 731 734 738 741 745 748 751 755 758 760 762 763 766 768 771 772 773 774 774 774 775 775 774 775 776 778 780 782 783
664 664 664 663 663 663 663 662 661 660 659 658 656 655 654 653 652 652 652 650 649 645 639 633 625 617 613 611 607 606 610 604 590 590 604 618 628 637 643 645 651 660 668 674 679 683 687 694 700 703 703 706 710 716 721 725 729 733 736 740 743 747 750 753 756 758 759 761 764 767 769 771 771 772 772 772 772 772 771 772 774 776 778 780 781
665 665 665 664 664 663 663 662 661 659 658 658 656 655 655 654 654 655 653 650 649 648 644 639 633 628 626 626 621 618 620 621 618 617 623 630 636 642 646 649 656 665 672 677 681 684 688 693 697 700 703 706 711 716 720 725 729 732 735 739 742 746 749 752 754 755 757 759 762 765 767 768 769 769 770 770 770 769 769 770 772 774 776 778 779
666 666 665 664 664 663 663 662 661 659 658 657 657 656 656 656 656 656 655 652 650 649 647 645 642 638 635 633 631 629 631 634 635 637 639 641 643 646 651 656 663 669 675 680 683 685 688 692 695 699 703 707 711 716 720 724 728 731 735 738 741 745 748 750 752 753 755 758 761 763 765 766 767 767 768 768 767 766 766 768 770 772 774 776 777
667 667 666 665 664 663 663 662 661 660 659 658 658 657 657 658 657 657 657 655 652 650 649 648 647 645 644 642 640 639 640 642 644 646 647 649 651 653 657 662 667 672 678 682 685 687 689 691 695 700 704 708 712 716 720 724 727 730 734 737 740 743 746 748 750 751 753 756 759 762 763 764 765 765 766 766 765 764 764 766 768 770 772 774 775
668 668 667 666 665 664 663 662 661 661 660 659 659 658 658 658 658 658 657 657 655 652 650 649 649 648 649 649 648 647 648 649 650 652 653 654 656 660 664 667 670 675 680 683 686 688 690 692 696 701 706 710 715 718 721 724 727 730 733 736 739 742 744 746 748 749 752 755 758 760 761 762 762 763 764 764 763 762 763 764 766 768 770 771 772
670 669 668 667 665 664 663 662 661 661 661 660 659 659 658 658 659 658 658 657 656 654 653 651 650 650 651 652 653 654 654 655 656 658 659 660 663 666 670 672 675 678 681 683 685 687 690 694 698 703 708 712 716 719 722 725 727 730 732 735 737 740 742 744 746 748 751 754 756 758 759 760 760 761 761 762 762 761 761 762 764 766 768 769 770
671 670 669 668 666 665 664 663 663 662 662 661 660 660 659 659 660 660 659 658 658 657 656 655 654 653 653 654 656 658 659 660 661 662 664 665 667 670 673 675 677 679 681 683 686 688 692 696 701 705 709 713 716 720 722 725 727 729 731 734 736 739 741 743 745 747 750 752 754 756 757 758 758 759 759 760 760 760 760 761 762 764 766 767 767
672 671 670 669 668 666 665 665 664 664 663 662 662 661 661 661 661 661 661 661 660 660 659 659 659 657 656 656 657 659 660 662 663 665 667 668 670 672 675 677 678 679 682 685 688 691 695 699 703 707 711 714 717 720 722 724 726 728 731 733 736 738 739 741 743 746 748 751 753 754 755 756 757 757 758 758 759 758 759 760 761 762 763 764 765
673 673 672 671 670 669 668 667 666 666 665 663 663 662 662 663 663 663 663 663 663 662 661 662 662 662 661 660 659 660 661 663 665 666 668 671 673 675 678 679 681 683 686 689 692 695 699 702 706 709 712 714 717 719 721 724 726 728 730 733 735 736 738 740 742 745 747 749 751 753 754 754 755 756 756 757 757 757 758 758 759 760 761 762 763
676 674 674 673 672 671 671 670 669 668 667 666 665 664 664 664 665 665 665 665 665 663 663 663 664 664 663 663 663 663 663 664 666 668 670 673 677 679 680 682 683 686 689 692 695 698 701 704 707 710 712 715 717 719 721 723 726 728 730 733 734 736 737 739 741 744 746 748 749 751 752 753 754 754 755 755 756 756 756 757 757 758 759 759 761
678 676 676 675 674 674 673 673 672 671 670 668 667 666 666 666 666 666 666 667 667 666 665 666 666 666 664 664 666 667 667 667 668 671 673 676 679 681 682 683 685 688 691 694 696 699 702 705 708 710 713 715 717 720 722 724 726 728 730 732 734 735 737 739 740 743 745 746 748 750 751 751 752 753 753 754 754 755 755 756 756 756 757 757 759
681 680 679 678 677 677 676 676 675 675 674 672 671 670 669 669 668 668 668 668 668 668 667 667 668 668 666 666 667 669 670 669 670 672 674 677 680 682 683 685 687 689 692 694 697 699 702 705 708 711 713 715 718 720 722 724 726 728 730 731 733 735 736 738 740 742 743 745 747 748 749 750 751 751 752 753 753 754 754 755 755 755 755 755 757